When you browse on this site, cookies collect data to enhance your experience and personalize the content and advertising you see.
Visit our Privacy Policy to learn more. By continuing to use the site, you agree to this use of cookies and data.

Hourly Weather Lipnica

Today, 5 July, Sunday

Time Temperature Precipitation Wind Pressure Humidity
00:00 +18°C° 0 mm 1 mps 745 mmHg 91%
01:00 +18°C° 0 mm 1 mps 745 mmHg 92%
02:00 +16°C° 0 mm 1 mps 746 mmHg 93%
03:00 +16°C° 0 mm 1 mps 745 mmHg 92%
04:00 +16°C° 0 mm 1 mps 745 mmHg 92%
05:00 +16°C° 0 mm 1 mps 745 mmHg 91%
06:00 +19°C° 0 mm 1 mps 745 mmHg 85%
07:00 +20°C° 0 mm 2 mps 745 mmHg 79%
08:00 +21°C° 0 mm 2 mps 745 mmHg 73%
09:00 +22°C° 0 mm 3 mps 745 mmHg 69%
10:00 +25°C° 0 mm 3 mps 745 mmHg 64%
11:00 +26°C° 0 mm 3 mps 745 mmHg 60%
12:00 +26°C° 0 mm 3 mps 745 mmHg 59%
13:00 +26°C° 0 mm 4 mps 744 mmHg 58%
14:00 +27°C° 0 mm 4 mps 744 mmHg 57%
15:00 +26°C° 0.1 mm 4 mps 744 mmHg 61%
16:00 +26°C° 0.1 mm 4 mps 744 mmHg 66%
17:00 +25°C° 0.1 mm 3 mps 744 mmHg 70%
18:00 +24°C° 0.1 mm 3 mps 744 mmHg 76%
19:00 +23°C° 0.1 mm 2 mps 744 mmHg 81%
20:00 +21°C° 0.1 mm 2 mps 744 mmHg 87%
21:00 +20°C° 0 mm 2 mps 743 mmHg 88%
22:00 +19°C° 0 mm 2 mps 743 mmHg 89%
23:00 +18°C° 0 mm 2 mps 743 mmHg 90%

Tomorrow, 6 July, Monday

Time Temperature Precipitation Wind Pressure Humidity
00:00 +18°C° 0 mm 2 mps 743 mmHg 91%
01:00 +18°C° 0 mm 3 mps 743 mmHg 93%
02:00 +18°C° 0 mm 3 mps 743 mmHg 94%
03:00 +18°C° 0 mm 3 mps 743 mmHg 94%
04:00 +18°C° 0 mm 2 mps 743 mmHg 94%
05:00 +18°C° 0 mm 2 mps 743 mmHg 94%
06:00 +20°C° 0 mm 3 mps 743 mmHg 89%
07:00 +22°C° 0 mm 3 mps 743 mmHg 84%
08:00 +24°C° 0 mm 3 mps 743 mmHg 78%
09:00 +25°C° 0.3 mm 4 mps 743 mmHg 77%
10:00 +26°C° 0.3 mm 4 mps 743 mmHg 75%
11:00 +27°C° 0.3 mm 4 mps 742 mmHg 73%
12:00 +27°C° 0.8 mm 4 mps 742 mmHg 74%
13:00 +27°C° 0.8 mm 4 mps 742 mmHg 75%
14:00 +27°C° 0.8 mm 4 mps 741 mmHg 76%
15:00 +26°C° 0.9 mm 4 mps 741 mmHg 79%
16:00 +26°C° 0.9 mm 3 mps 741 mmHg 82%
17:00 +25°C° 0.9 mm 3 mps 740 mmHg 85%
18:00 +24°C° 0.5 mm 2 mps 740 mmHg 86%
19:00 +24°C° 0.5 mm 2 mps 740 mmHg 88%
20:00 +23°C° 0.5 mm 1 mps 740 mmHg 89%
21:00 +22°C° 0.3 mm 1 mps 740 mmHg 90%
22:00 +21°C° 0.3 mm 1 mps 740 mmHg 92%
23:00 +21°C° 0.3 mm 1 mps 740 mmHg 93%

Day after tomorrow, 7 July, Tuesday

Time Temperature Precipitation Wind Pressure Humidity
00:00 +20°C° 0.5 mm 1 mps 740 mmHg 95%
01:00 +19°C° 0.5 mm 2 mps 740 mmHg 96%
02:00 +19°C° 0.5 mm 2 mps 740 mmHg 97%
03:00 +18°C° 1.1 mm 2 mps 741 mmHg 97%
04:00 +18°C° 1.1 mm 3 mps 741 mmHg 97%
05:00 +18°C° 1.1 mm 4 mps 741 mmHg 97%
06:00 +17°C° 1.8 mm 3 mps 741 mmHg 97%
07:00 +17°C° 1.8 mm 3 mps 741 mmHg 97%
08:00 +17°C° 1.8 mm 3 mps 742 mmHg 97%
09:00 +17°C° 0.3 mm 3 mps 742 mmHg 94%
10:00 +18°C° 0.3 mm 3 mps 742 mmHg 91%
11:00 +18°C° 0.3 mm 4 mps 742 mmHg 88%
12:00 +20°C° 0 mm 4 mps 742 mmHg 81%
13:00 +21°C° 0 mm 4 mps 742 mmHg 74%
14:00 +22°C° 0 mm 4 mps 742 mmHg 66%
15:00 +22°C° 0 mm 4 mps 742 mmHg 67%
16:00 +22°C° 0 mm 3 mps 742 mmHg 67%
17:00 +21°C° 0 mm 3 mps 742 mmHg 67%
18:00 +20°C° 0 mm 3 mps 743 mmHg 72%
19:00 +19°C° 0 mm 3 mps 743 mmHg 77%
20:00 +18°C° 0 mm 3 mps 743 mmHg 81%
21:00 +17°C° 0 mm 3 mps 743 mmHg 81%
22:00 +16°C° 0 mm 3 mps 743 mmHg 80%
23:00 +16°C° 0 mm 3 mps 744 mmHg 79%

8 July, Wednesday

Time Temperature Precipitation Wind Pressure Humidity
00:00 +16°C° 0 mm 3 mps 744 mmHg 77%
01:00 +15°C° 0 mm 4 mps 744 mmHg 75%
02:00 +15°C° 0 mm 4 mps 744 mmHg 73%
03:00 +14°C° 0 mm 4 mps 744 mmHg 74%
04:00 +13°C° 0 mm 4 mps 744 mmHg 76%
05:00 +13°C° 0 mm 4 mps 745 mmHg 77%
06:00 +13°C° 0 mm 4 mps 745 mmHg 75%
07:00 +14°C° 0 mm 4 mps 745 mmHg 73%
08:00 +15°C° 0 mm 4 mps 745 mmHg 71%
09:00 +17°C° 0 mm 3 mps 745 mmHg 67%
10:00 +18°C° 0 mm 3 mps 745 mmHg 63%
11:00 +19°C° 0 mm 3 mps 745 mmHg 59%
12:00 +20°C° 0 mm 3 mps 745 mmHg 58%
13:00 +21°C° 0 mm 3 mps 745 mmHg 56%
14:00 +21°C° 0 mm 3 mps 745 mmHg 55%
15:00 +21°C° 0 mm 3 mps 745 mmHg 57%
16:00 +21°C° 0 mm 3 mps 745 mmHg 59%
17:00 +21°C° 0 mm 3 mps 745 mmHg 60%
18:00 +19°C° 0 mm 3 mps 745 mmHg 67%
19:00 +18°C° 0 mm 3 mps 745 mmHg 74%
20:00 +16°C° 0 mm 2 mps 745 mmHg 81%
21:00 +15°C° 0 mm 2 mps 745 mmHg 83%
22:00 +15°C° 0 mm 2 mps 745 mmHg 84%
23:00 +14°C° 0 mm 2 mps 745 mmHg 86%

9 July, Thursday

Time Temperature Precipitation Wind Pressure Humidity
00:00 +14°C° 0 mm 2 mps 746 mmHg 86%
01:00 +13°C° 0 mm 2 mps 746 mmHg 86%
02:00 +13°C° 0 mm 2 mps 746 mmHg 86%
03:00 +13°C° 0 mm 2 mps 746 mmHg 86%
04:00 +13°C° 0 mm 2 mps 746 mmHg 85%
05:00 +13°C° 0 mm 1 mps 746 mmHg 84%
06:00 +15°C° 0 mm 2 mps 746 mmHg 80%
07:00 +16°C° 0 mm 2 mps 746 mmHg 76%
08:00 +17°C° 0 mm 2 mps 746 mmHg 72%
09:00 +18°C° 0.1 mm 2 mps 747 mmHg 69%
10:00 +18°C° 0.1 mm 3 mps 747 mmHg 66%
11:00 +19°C° 0.1 mm 3 mps 747 mmHg 64%
12:00 +20°C° 0.2 mm 3 mps 747 mmHg 64%
13:00 +20°C° 0.2 mm 3 mps 746 mmHg 64%
14:00 +21°C° 0.2 mm 3 mps 746 mmHg 63%
15:00 +20°C° 0.4 mm 3 mps 746 mmHg 67%
16:00 +20°C° 0.4 mm 3 mps 746 mmHg 70%
17:00 +20°C° 0.4 mm 3 mps 746 mmHg 73%
18:00 +18°C° 0.2 mm 2 mps 746 mmHg 78%
19:00 +17°C° 0.2 mm 2 mps 746 mmHg 82%
20:00 +16°C° 0.2 mm 2 mps 746 mmHg 87%
21:00 +15°C° 0 mm 2 mps 747 mmHg 88%
22:00 +14°C° 0 mm 2 mps 747 mmHg 90%
23:00 +13°C° 0 mm 2 mps 747 mmHg 91%

10 July, Friday

Time Temperature Precipitation Wind Pressure Humidity
00:00 +12°C° 0 mm 1 mps 748 mmHg 91%
01:00 +12°C° 0 mm 1 mps 748 mmHg 92%
02:00 +11°C° 0 mm 1 mps 748 mmHg 92%
03:00 +12°C° 0 mm 1 mps 748 mmHg 92%
04:00 +12°C° 0 mm 1 mps 749 mmHg 92%
05:00 +12°C° 0 mm 1 mps 749 mmHg 92%
06:00 +14°C° 0 mm 1 mps 749 mmHg 86%
07:00 +15°C° 0 mm 1 mps 749 mmHg 81%
08:00 +18°C° 0 mm 1 mps 749 mmHg 75%
09:00 +20°C° 0 mm 1 mps 750 mmHg 68%
10:00 +21°C° 0 mm 1 mps 750 mmHg 61%
11:00 +21°C° 0 mm 2 mps 750 mmHg 54%
12:00 +23°C° 0 mm 2 mps 750 mmHg 52%
13:00 +23°C° 0 mm 2 mps 750 mmHg 51%
14:00 +24°C° 0 mm 1 mps 750 mmHg 49%
15:00 +24°C° 0 mm 1 mps 750 mmHg 51%
16:00 +23°C° 0 mm 1 mps 750 mmHg 52%
17:00 +23°C° 0 mm 1 mps 750 mmHg 54%
18:00 +22°C° 0 mm 1 mps 750 mmHg 60%
19:00 +20°C° 0 mm 1 mps 750 mmHg 66%
20:00 +16°C° 0 mm 0 mps 750 mmHg 71%
21:00 +16°C° 0 mm 1 mps 750 mmHg 74%
22:00 +16°C° 0 mm 1 mps 751 mmHg 76%
23:00 +15°C° 0 mm 1 mps 751 mmHg 78%
Show more